Regional Weather Roundup
Issued by NWS Little Rock, AR

Home | Current Version | Previous Version | Text Only | Print | Product List | Glossary Off
Versions: 1 2 3 4 5 6 7 8 9 10 11 12 13 14 15 16 17 18 19 20 21 22 23 24 25 26 27 28 29 30 31 32 33 34 35 36 37 38 39 40 41 42 43 44 45 46 47 48 49 50

000
ASUS44 KLZK 020405
RWRLZK

WEATHER ROUNDUP FOR ARKANSAS
NATIONAL WEATHER SERVICE LITTLE ROCK AR
1100 PM CDT WED JUL 01 2015

NOTE: "FAIR" INDICATES FEW OR NO CLOUDS BELOW 12,000 FEET WITH NO
SIGNIFICANT WEATHER AND/OR OBSTRUCTIONS TO VISIBILITY.

ARZ001-003-010-029-020500-
NORTHWEST ARKANSAS

CITY           SKY/WX    TMP DP  RH WIND       PRES   REMARKS
FAYETTEVILLE   PTCLDY    80  69  69 SW15G26   29.89F
FORT SMITH     MOCLDY    84  69  60 SW10      29.87S HX  88
HARRISON       PTCLDY    80  70  71 SW9       29.89R
BENTONVILLE    PTCLDY    81  66  61 SW10G16   29.89R
ROGERS         CLEAR     80  69  69 SW13      29.89R
SILOAM SPGS    PTCLDY    79  66  65 SW15      29.89S
HIGHFILL       PTCLDY    81  70  69 SW15G22   29.88S
$$

ARZ004-005-016-020500-
NORTH CENTRAL ARKANSAS

CITY           SKY/WX    TMP DP  RH WIND       PRES   REMARKS
BATESVILLE     MOCLDY    82  72  69 SW9       29.89R HX  87
FLIPPIN        PTCLDY    81  70  69 S3        29.85R
MTN HOME       MOCLDY    79  72  79 SW8       29.87R
$$

ARZ040-041-020500-
WEST CENTRAL ARKANSAS

CITY           SKY/WX    TMP DP  RH WIND       PRES   REMARKS
MENA           CLEAR     82  72  69 SW10G18   29.95F HX  87
MOUNT IDA      MOCLDY    83  70  64 MISG      29.91F HX  87
$$

ARZ009-017-025-026-028-020500-
NORTHEAST ARKANSAS

CITY           SKY/WX    TMP DP  RH WIND       PRES   REMARKS
JONESBORO      PTCLDY    81  72  74 SW13      29.88S HX  85
NEWPORT        MOCLDY    82  73  74 S8        29.90R HX  87
WALNUT RIDGE   MOCLDY    81  70  69 S14       29.87S
BLYTHEVILLE    CLEAR     79  76  90 S9        29.89F
$$

ARZ022-023-033-042-044-020500-
CENTRAL ARKANSAS

CITY           SKY/WX    TMP DP  RH WIND       PRES   REMARKS
LITTLE ROCK    PTCLDY    82  71  69 S10       29.90F HX  86
N LITTLE ROCK  PTCLDY    82  74  78 SW9G15    29.90F HX  87
JACKSONVILLE   PTCLDY    82  73  72 S10       29.90S HX  87
SEARCY         CLEAR     81  73  76 S7        29.91S HX  86
HOT SPRINGS    PTCLDY    83  71  67 SW10      29.92F HX  87
RUSSELLVILLE   MOCLDY    83  70  64 SW5       29.89R HX  87
CLINTON        FAIR      77  75  94 CALM      29.92R
$$

ARZ036-020500-
EAST ARKANSAS

CITY           SKY/WX    TMP DP  RH WIND       PRES   REMARKS
WEST MEMPHIS   PTCLDY    81  74  79 S7        29.89F HX  86
$$

ARZ050-053-066-070-073-020500-
SOUTHWEST ARKANSAS

CITY           SKY/WX    TMP DP  RH WIND       PRES   REMARKS
ARKADELPHIA    FAIR      81  75  81 S9        29.93F HX  87
CAMDEN         CLEAR     81  72  74 MISG      29.95F
TEXARKANA      CLEAR     81  73  76 S12       29.97S HX  86
EL DORADO      CLEAR     78  71  79 S9        29.99S
DE QUEEN       CLEAR     80  73  79 SW7       29.93S
$$

ARZ056-057-069-020500-
SOUTHEAST ARKANSAS

CITY           SKY/WX    TMP DP  RH WIND       PRES   REMARKS
PINE BLUFF     PTCLDY    82  72  71 SW12      29.92S HX  87
STUTTGART      CLEAR     81  72  74 MISG      29.90F
MONTICELLO     PTCLDY    82  74  76 SW14      29.95F HX  88

$$




USA.gov is the U.S. government's official web portal to all federal, state and local government web resources and services.